This demonstration page uses our WeatherBlox Daily Observations layout. Learn more.

Left ArrowRight Arrow

38.88101, -77.10428

Hourly Observations for April 22, 2021

Temp ( °F °C ) Dew Point ( °F °C ) Humidity (%) Winds ( mph kmh ) Pressure ( in mb ) Visibility ( mi km ) Precip ( " mm )
12:52 am 00:52 Mostly Clear 41 5 17 -8.3 38 38 NW 16 26 29.98 1015 10 16.0934 0 0
1:52 am 01:52 Mostly Clear 39 3.9 18 -7.8 43 43 NW 10 17 29.99 1016 10 16.0934 0 0
2:52 am 02:52 Mostly Clear 39 3.9 18 -7.8 43 43 W 6 9 29.99 1016 10 16.0934 0 0
3:52 am 03:52 Mostly Clear 38 3.3 20 -6.7 48 48 SW 3 6 29.99 1016 10 16.0934 0 0
4:52 am 04:52 Mostly Clear 37 2.8 21 -6.1 52 52 SW 3 6 29.99 1016 10 16.0934 0 0
5:52 am 05:52 Partly Cloudy 37 2.8 22 -5.6 54 54 SSW 5 7 29.99 1016 10 16.0934 0 0
6:52 am 06:52 Partly Cloudy 37 2.8 22 -5.6 54 54 SSW 6 9 30.02 1017 10 16.0934 0 0
7:52 am 07:52 Mostly Sunny 40 4.4 22 -5.6 49 49 WSW 9 15 30.04 1017 10 16.0934 0 0
8:52 am 08:52 Mostly Cloudy 44 6.7 23 -5 43 43 W 10 17 30.04 1017 10 16.0934 0 0
9:52 am 09:52 Mostly Cloudy 45 7.2 21 -6.1 39 39 WNW 21 33 30.04 1017 10 16.0934 0 0
10:52 am 10:52 Mostly Cloudy 46 7.8 21 -6.1 37 37 NW 17 28 30.05 1018 10 16.0934 0 0
11:52 am 11:52 Mostly Cloudy 47 8.3 21 -6.1 36 36 W 22 35 30.05 1018 10 16.0934 0 0
12:52 pm 12:52 Cloudy 48 8.9 21 -6.1 34 34 WNW 18 30 30.03 1017 10 16.0934 0 0
1:52 pm 13:52 Mostly Cloudy 52 11.1 22 -5.6 31 31 WNW 20 31 30.02 1017 10 16.0934 0 0
2:52 pm 14:52 Mostly Cloudy 52 11.1 20 -6.7 28 28 WNW 20 31 30.02 1017 10 16.0934 0 0
3:52 pm 15:52 Mostly Cloudy 51 10.6 20 -6.7 29 29 W 18 30 30.01 1016 10 16.0934 0 0
4:52 pm 16:52 Mostly Cloudy 50 10 19 -7.2 29 29 NW 14 22 30.01 1016 10 16.0934 0 0
5:52 pm 17:52 Mostly Cloudy 52 11.1 19 -7.2 27 27 W 15 24 30.01 1016 10 16.0934 0 0
6:52 pm 18:52 Mostly Cloudy 51 10.6 18 -7.8 27 27 W 14 22 30.01 1016 10 16.0934 0 0
7:52 pm 19:52 Mostly Cloudy 50 10 19 -7.2 29 29 WNW 7 11 30.03 1017 10 16.0934 0 0
8:52 pm 20:52 Mostly Cloudy 48 8.9 19 -7.2 32 32 WNW 7 11 30.05 1018 10 16.0934 0 0
9:52 pm 21:52 Mostly Cloudy 47 8.3 20 -6.7 34 34 W 6 9 30.08 1019 10 16.0934 0 0
10:52 pm 22:52 Cloudy 48 8.9 22 -5.6 36 36 W 5 7 30.09 1019 10 16.0934 0 0
11:52 pm 23:52 Partly Cloudy 47 8.3 23 -5 39 39 W 8 13 30.1 1019 10 16.0934 0 0

Powered by AerisWeather